This is the latest recevied weather packets stored in our database for station/object YF9UAG-16. If no packets are shown the sender has not sent any weather packets the latest 10 day(s).
| Time | Temp. | Humidity | Pressure | Rain* | Wind** | Luminosity | Snow |
|---|---|---|---|---|---|---|---|
| 1778055604 | 29.44° C | 68% | 1007 hPa | - | - | 0 W/m² | - |
| 1778055283 | 29.44° C | 66% | 1007 hPa | - | - | 0 W/m² | - |
| 1778054961 | 30° C | 65% | 1006 hPa | - | - | 0 W/m² | - |
| 1778054639 | 30° C | 65% | 1006 hPa | - | - | 0 W/m² | - |
| 1778054319 | 30° C | 63% | 1006 hPa | - | - | 0 W/m² | - |
| 1778053995 | 30.56° C | 65% | 1006 hPa | - | - | 0 W/m² | - |
| 1778053673 | 30° C | 64% | 1006 hPa | - | - | 0 W/m² | - |
| 1778053351 | 30.56° C | 62% | 1006 hPa | - | - | 0 W/m² | - |
| 1778053029 | 30.56° C | 64% | 1006 hPa | - | - | 0 W/m² | - |
| 1778052707 | 30° C | 61% | 1006 hPa | - | - | 0 W/m² | - |
| 1778052385 | 30.56° C | 64% | 1006 hPa | - | - | 0 W/m² | - |
| 1778052063 | 30.56° C | 62% | 1006 hPa | - | - | 0 W/m² | - |
| 1778051741 | 30.56° C | 60% | 1006 hPa | - | - | 0 W/m² | - |
| 1778051419 | 30.56° C | 60% | 1006 hPa | - | - | 0 W/m² | - |
| 1778051097 | 30.56° C | 56% | 1006 hPa | - | - | 0 W/m² | - |
| 1778050775 | 31.11° C | 57% | 1005 hPa | - | - | 0 W/m² | - |
| 1778050452 | 31.11° C | 52% | 1005 hPa | - | - | 0 W/m² | - |
| 1778050131 | 32.22° C | 53% | 1005 hPa | - | - | 0 W/m² | - |
| 1778049809 | 31.67° C | 47% | 1005 hPa | - | - | 0 W/m² | - |
| 1778049487 | 33.33° C | 46% | 1005 hPa | - | - | 0 W/m² | - |
| 1778049165 | 33.33° C | 45% | 1005 hPa | - | - | 0 W/m² | - |
| 1778048843 | 34.44° C | 40% | 1005 hPa | - | - | 0 W/m² | - |
| 1778048521 | 34.44° C | 35% | 1005 hPa | - | - | 0 W/m² | - |
| 1778048199 | 36.11° C | 33% | 1005 hPa | - | - | 0 W/m² | - |
| 1778047877 | 38.89° C | 29% | 1005 hPa | - | - | 0 W/m² | - |
* Rain since midnight (hover to see other rain measurements)
** Current wind speed in m/s (hover to see current wind gust speed)